Location: *
(33.9502°N, 161.4456°W)
Time: 12:13:52
(UTC+00:00)

Daily predictions for brighter satellites

Satellite Brightness Start Highest point End
(mag) Time Altitude Azimuth Time Altitude Azimuth Time Altitude Azimuth
ADEOS II 4.3 12:59:13 10° NNE 13:00:54 21° NNE 13:00:54 21° NNE
Cosmos 2237 Rocket 4.4 13:06:34 10° N 13:10:55 22° ENE 13:15:14 10° ESE
IDEFIX/ARIANE 42P 4.3 13:20:08 10° NE 13:24:00 28° E 13:24:00 28° E
Cosmos 2297 Rocket 3.3 13:27:42 41° NE 13:27:42 41° NE 13:31:34 10° NNE
Cosmos 2219 4.2 13:31:37 42° NNE 13:31:37 42° NNE 13:35:20 10° NNE
Cosmos 2227 Rocket 2.5 13:52:54 62° NNE 13:52:54 62° NNE 13:57:36 10° NNE
USA 267 3.9 13:47:15 10° NNE 13:53:13 40° NW 13:53:19 39° NW
ATLAS 3B R/B 4.3 13:50:47 17° SSE 13:54:13 25° ESE 13:59:29 10° ENE
ARIANE 5 R/B 3.9 13:50:56 10° N 13:53:42 30° NNW 13:53:42 30° NNW
Cosmos 1634 Rocket 3.8 14:01:49 10° N 14:07:59 81° W 14:08:06 80° WSW
USA 238 DEB 3.6 14:09:18 64° WNW 14:09:36 65° WNW 14:16:22 10° NNE
USA 238 3.6 14:09:22 64° WNW 14:09:42 65° WNW 14:16:30 10° NNE
Cosmos 1980 3.7 14:07:25 10° NNW 14:13:06 81° ENE 14:18:45 10° SSE
NOSS 0 Rocket 3.9 14:13:10 10° NNW 14:26:14 - S 14:18:37 61° WNW
PSLV R/B 4.2 14:16:27 10° NNE 14:20:44 53° E 14:21:28 47° SE
Meteor 1-19 Rocket 4.1 14:22:26 65° SSW 14:23:17 82° W 14:28:53 10° N
USA 234 4.3 14:17:46 10° ESE 14:23:51 43° NE 14:29:57 10° NNW
Cosmos 2142 Rocket 4.4 14:18:10 10° N 14:24:31 81° W 14:28:00 28° S
Cosmos 2082 3.6 14:25:38 62° SSW 14:26:38 85° WNW 14:32:24 10° NNE
STARLINK-1041 4.4 14:27:51 45° SE 14:27:52 45° SE 14:31:49 10° ENE
SL-16 R/B 3.8 14:24:04 10° N 14:29:13 35° ENE 14:34:21 10° SE
STARLINK-1038 4.1 14:32:38 50° SE 14:32:49 50° SE 14:36:50 10° NE
NOSS 3-2 (A) 3.8 14:35:34 39° WNW 14:36:11 40° NW 14:42:01 10° NNE
STARLINK-1046 3.9 14:37:25 54° SSE 14:37:47 57° SE 14:41:51 10° NE
MSX 3.7 14:35:46 10° N 14:41:33 76° WNW 14:44:15 33° SSW
STARLINK-1039 3.8 14:42:11 57° S 14:42:44 64° SE 14:46:50 10° NE
ADEOS II 4.3 14:41:24 10° NW 14:41:51 11° NW 14:41:51 11° NW
Cosmos 1782 Rocket 4.3 14:39:21 10° NNW 14:42:13 36° NW 14:42:13 36° NW
CZ-2C R/B 2.7 14:41:23 10° NNE 14:45:54 60° E 14:49:37 15° S
Cosmos 389 Rocket 2.9 14:47:13 51° NNW 14:47:13 51° NNW 14:50:07 10° N
STARLINK-1045 3.7 14:46:58 56° SSW 14:47:42 73° SE 14:51:49 10° NE
CENTAUR R/B 2.4 14:48:22 39° WSW 14:50:29 65° WNW 14:57:04 10° NNE
Cosmos 1544 2.9 14:47:24 10° N 14:51:02 74° W 14:51:15 71° SW
SeaSat 1 3.9 14:46:34 10° SE 14:51:06 38° ENE 14:55:40 10° N
STARLINK-1050 3.5 14:51:49 53° SSW 14:52:43 83° SE 14:56:52 10° NE
Nadezhda 4 Rocket 4.0 14:47:38 10° S 14:53:57 87° W 15:00:19 10° N
Cosmos 2237 Rocket 2.4 14:49:46 10° NW 14:55:08 45° WSW 15:00:30 10° S
STARLINK-52 3.9 14:53:38 23° NNW 14:55:17 46° NE 14:58:23 10° ESE
STARLINK-1055 3.5 14:56:36 48° SW 14:57:41 88° NW 15:01:51 10° NE
Cosmos 2279 Rocket 4.1 14:53:56 10° NNW 14:59:53 49° W 15:05:51 10° SSW
Cosmos 1048 Rocket 3.9 14:56:06 10° NNW 15:01:25 68° WSW 15:06:44 10° S
STARLINK-1022 3.5 15:01:23 43° SW 15:02:41 79° NW 15:06:49 10° NE
Gblst 52 Del rocket 4.2 14:57:18 11° NW 15:02:56 57° SW 15:08:21 10° SSE
Cosmos 1125 Rocket 4.2 15:02:52 31° W 15:04:01 34° WNW 15:08:50 10° N
IDEFIX/ARIANE 42P 3.4 14:59:39 10° NNW 15:04:02 28° WNW 15:04:48 27° W
NOSS 3-2 (C) 3.9 15:03:21 29° W 15:05:32 40° NW 15:11:24 10° NNE
Meteor 2-4 Rocket 3.9 15:01:41 21° SSW 15:05:38 56° W 15:11:28 10° N
Cosmos 2263 Rocket 3.5 15:02:04 10° S 15:07:18 41° ESE 15:12:35 10° NE
STARLINK-1042 3.6 15:06:10 38° WSW 15:07:38 71° NW 15:11:47 10° NE
ALOS 4.3 15:05:58 10° NE 15:10:01 29° E 15:14:03 10° SSE
Cosmos 2297 Rocket 3.7 15:09:31 18° WNW 15:10:25 18° WNW 15:14:14 10° NNW
CZ-4B R/B 2.1 15:12:03 33° W 15:12:03 33° W 15:14:54 10° NNW
STARLINK-1056 3.7 15:10:55 33° WSW 15:12:36 64° NW 15:16:43 10° NE
Cosmos 1674 Rocket 3.5 15:08:39 10° S 15:13:04 88° E 15:17:30 10° N
Cosmos 1484 Rocket 4.0 15:12:13 10° NNE 15:15:51 41° E 15:19:23 10° S
Cosmos 2221 Rocket 4.4 15:15:36 27° WSW 15:16:47 31° WNW 15:20:44 10° NNW
H-2A R/B 3.6 15:13:21 10° NNE 15:17:13 42° E 15:20:56 10° S
STARLINK-1054 3.8 15:15:43 29° WSW 15:17:36 57° NW 15:21:41 10° NE
ASTRO E2 3.7 15:17:42 26° SW 15:18:41 29° SSW 15:22:09 10° SE
STARLINK-1062 3.9 15:20:30 25° WSW 15:22:35 51° NW 15:26:37 10° NE
Cosmos 1689 Rocket 2.2 15:20:15 10° S 15:23:11 48° W 15:26:06 10° NNW
Cosmos 1975 4.3 15:21:33 10° NW 15:23:57 19° WNW 15:23:57 19° WNW
STARLINK-1053 4.1 15:25:17 22° WSW 15:27:35 46° NW 15:31:35 10° NNE
ADEOS 4.0 15:23:29 10° N 15:28:22 41° WNW 15:33:13 10° SW
FALCON 9 DEB 3.1 15:27:05 10° NW 15:30:28 59° SW 15:33:49 10° SSE
Cosmos 2227 4.2 15:26:37 10° SSW 15:32:15 88° ESE 15:37:55 10° NNE
STARLINK-1061 4.2 15:30:03 20° WSW 15:32:33 42° NW 15:36:30 10° NNE
Okean 2 Rocket 3.8 15:31:58 10° NNW 15:35:58 32° W 15:39:59 10° SSW
Cosmos 2227 Rocket 4.1 15:34:44 11° WNW 15:36:40 12° NW 15:38:53 10° NNW
Cosmos 2151 Rocket 3.7 15:32:26 10° NNW 15:36:40 48° W 15:40:53 10° SSW
Gbstr 26 Del rocket 4.2 15:30:23 10° SSW 15:36:41 57° SE 15:41:46 10° NE
STARLINK-1067 4.4 15:34:51 17° W 15:37:33 38° NW 15:41:26 10° NNE
Cosmos 1437 Rocket 3.5 15:36:20 10° S 15:40:21 59° E 15:44:23 10° NNE
Cosmos 1300 Rocket 4.2 15:38:21 10° NNW 15:42:12 33° W 15:46:04 10° SSW
ATLAS 3B R/B 2.9 15:38:05 10° SW 15:44:30 50° NW 15:50:56 10° NNE
PSLV R/B 4.0 15:43:28 10° S 15:47:36 56° W 15:51:44 10° NNW
Cosmos 1356 4.2 15:45:01 10° NNW 15:48:03 30° W 15:51:04 10° SSW
Okean 2 4.5 15:46:18 10° SSE 15:50:18 50° E 15:54:17 10° NNE
STARLINK-29 4.0 15:47:42 10° WNW 15:50:31 27° SW 15:53:18 10° S
Cosmos 1627 Rocket 4.5 15:44:26 10° SSW 15:50:31 63° W 15:56:36 10° N
SKYMED 2 4.5 15:48:35 10° SSE 15:52:49 54° ENE 15:57:03 10° N
Cosmos 1378 Rocket 4.0 15:49:57 10° SSW 15:53:59 39° W 15:58:04 10° N
CZ-4B R/B 4.4 15:53:05 10° N 15:56:40 35° WNW 16:00:06 10° SW
Cosmos 1378 3.2 15:54:15 10° S 15:57:56 86° E 16:01:41 10° N
Meteor 1-31 Rocket 3.6 15:56:53 10° N 16:00:24 32° WNW 16:03:53 10° SW
Cosmos 1818 3.6 15:56:16 10° NNW 16:01:44 87° WSW 16:07:08 10° SSE
Meteor 1-4 Rocket 4.4 16:00:20 10° WSW 16:02:36 15° WNW 16:04:52 10° NW
PSLV R/B 3.9 16:00:19 10° NNE 16:04:27 88° W 16:08:29 10° SSW
Meteor 1-15 Rocket 4.2 16:00:54 10° NNW 16:06:26 65° W 16:12:01 10° S
USA 234 3.5 16:00:29 10° SSE 16:06:44 48° SW 16:13:00 10° NW
